Wind_Speed
11 10 11 11 10 10 9 9 9 9 9 9 9 10 11 11 12 12 13 14 14 15 15 16 17 17 16 17 17 18 19 19 20 20 21 22 22 23 24 25 25 25 25
11 11 11 11 10 10 9 9 9 10 10 10 10 10 11 12 12 13 13 14 15 15 16 16 17 17 17 18 18 19 19 20 20 20 21 22 23 23 24 24 24 25 25
12 11 11 11 11 11 11 10 10 10 10 10 11 12 12 12 12 13 14 15 15 16 16 16 17 17 18 19 19 19 19 20 20 21 22 22 23 23 24 24 25 25 26
13 12 12 12 12 12 12 12 12 11 11 11 12 12 12 12 13 14 14 14 15 16 16 17 18 18 18 19 19 20 20 21 22 22 22 23 23 24 24 25 26 27 28
13 12 12 12 13 13 13 13 13 12 12 13 13 13 13 13 13 14 14 15 16 17 18 18 18 18 18 19 20 20 21 22 22 22 23 24 24 25 25 26 27 28 29
13 13 13 13 14 14 14 14 13 13 13 13 13 13 13 14 14 14 15 16 17 18 18 19 19 19 20 20 20 21 21 22 22 23 24 25 25 26 27 27 27 28 29
14 14 15 15 15 15 15 16 15 14 14 14 14 14 14 15 16 16 16 17 18 18 18 19 19 20 20 21 21 21 22 22 23 24 24 25 26 27 28 28 28 29 29
15 15 16 16 16 16 16 16 14 15 15 15 15 15 16 16 17 17 18 18 19 19 19 20 21 21 22 22 22 22 23 23 24 24 25 26 27 27 28 28 28 29 30
16 16 17 17 17 17 17 15 15 15 15 16 16 16 16 17 17 18 19 19 19 20 20 21 21 22 22 22 22 23 23 23 24 25 26 27 27 28 28 29 29 29 29
17 17 18 18 18 18 16 16 16 16 16 16 17 17 18 18 18 19 19 19 20 20 20 21 22 22 23 23 23 24 24 24 25 25 26 27 28 28 29 29 29 29 29
18 18 18 18 18 18 17 17 17 17 17 18 18 19 19 19 19 19 19 19 20 21 21 22 22 23 23 24 24 24 24 24 25 26 27 27 28 28 28 29 29 29 29
19 19 19 19 19 19 19 18 18 18 18 19 19 19 19 20 20 20 20 20 21 22 23 23 24 24 24 24 24 24 24 24 25 26 27 27 28 28 29 29 29 29 29
20 20 21 21 21 21 20 20 20 19 19 19 20 20 20 21 21 21 22 22 23 23 24 25 25 25 24 24 24 25 25 26 26 27 28 28 29 29 29 29 29 28 28
22 22 22 22 22 21 21 21 21 20 20 21 21 21 22 22 22 23 23 23 24 24 25 26 26 26 26 25 25 25 26 27 27 28 28 28 29 28 28 29 29 28 28
23 23 23 23 23 22 21 22 22 21 22 22 22 22 23 23 24 24 24 25 25 26 27 27 27 26 26 26 26 26 26 27 27 28 28 29 29 29 29 29 28 28 28
23 24 24 24 23 23 23 23 23 23 23 23 23 24 24 24 25 25 26 26 26 27 28 28 27 27 27 27 27 27 27 27 28 28 29 29 29 29 29 28 28 28 27
24 25 25 24 24 25 24 23 24 24 24 24 25 25 25 26 26 26 27 27 27 28 28 28 28 27 27 27 27 27 28 28 29 29 29 29 28 28 28 28 27 27 27
26 26 26 25 25 25 24 24 24 25 25 26 26 26 27 27 27 28 28 28 28 28 27 27 27 27 27 27 28 28 28 29 29 29 29 29 28 28 28 28 27 27 27
27 26 26 26 26 25 25 25 26 26 26 27 27 27 28 28 28 29 29 29 29 28 28 28 28 28 28 28 28 29 29 29 29 29 29 29 29 28 28 28 27 27 27
27 26 27 27 27 27 27 27 27 27 28 28 28 29 29 29 30 30 29 29 29 29 29 29 29 29 29 29 29 29 29 29 30 30 30 29 29 29 28 28 28 27 27
27 27 27 27 27 27 27 28 28 29 29 29 30 29 30 30 30 30 30 30 29 29 29 30 30 30 29 28 28 29 29 29 30 30 30 29 29 28 28 28 28 27 27
29 28 28 27 27 28 29 29 29 30 29 30 30 30 30 30 30 30 30 30 30 30 30 30 30 29 29 28 28 28 29 29 30 30 29 29 29 28 27 27 27 26 26
29 28 28 28 28 29 29 29 29 29 29 30 30 30 30 30 29 29 29 30 30 31 30 30 29 29 28 28 28 28 29 29 30 30 30 29 29 28 27 27 27 26 26
29 29 29 29 29 29 29 29 29 29 29 30 30 30 30 29 29 30 30 31 31 30 30 29 29 29 29 28 29 29 29 29 30 30 30 29 29 28 28 27 27 27 26
30 30 31 31 30 30 29 29 29 29 29 29 29 29 29 29 29 30 30 31 30 29 29 29 29 29 29 29 29 29 29 29 30 30 29 29 29 28 28 27 27 26 26
31 31 32 31 31 30 30 30 29 30 30 30 30 30 29 29 29 30 30 30 29 29 29 29 29 28 29 29 29 29 29 30 30 30 29 29 28 28 28 27 27 27 27
Wind_Direction
330 327 328 324 319 316 311 309 306 306 305 301 299 297 294 296 294 294 295 296 298 298 298 297 297 298 300 301 300 301 300 299 298 298 299 300 300 299 298 297 295 294 292
329 325 326 324 325 320 317 315 308 305 306 304 303 303 301 301 299 298 297 298 299 299 299 299 298 298 300 301 300 300 299 299 299 299 300 300 300 300 300 299 296 294 292
328 325 322 322 325 323 320 317 312 306 305 304 303 302 303 302 301 301 298 299 300 300 301 302 301 299 299 300 300 300 300 300 301 300 301 302 301 301 300 300 298 295 295
323 323 325 323 322 321 319 315 310 307 305 305 303 302 301 300 300 302 301 304 304 304 304 304 303 301 300 300 300 301 301 301 302 302 302 302 302 302 301 300 298 297 297
318 317 320 323 323 320 317 313 307 303 304 304 306 304 301 300 302 302 304 306 307 306 305 305 304 303 302 302 301 301 301 302 303 303 303 303 303 304 303 301 300 299 298
310 311 313 314 318 320 319 318 315 312 310 307 308 308 306 305 304 305 306 307 308 308 308 307 306 305 304 302 301 301 303 304 304 303 303 303 304 305 304 303 302 301 300
304 306 309 310 310 312 311 312 310 309 311 309 308 306 307 307 307 306 306 307 309 310 310 310 309 308 306 305 304 302 303 303 304 304 304 304 304 304 304 304 304 303 303
296 300 305 304 305 307 309 309 308 306 306 307 305 305 304 304 304 306 307 307 310 311 309 309 309 309 307 306 306 305 304 304 304 305 305 305 306 307 307 306 305 305 304
294 298 301 302 303 304 305 307 306 307 307 306 305 304 304 303 303 304 307 309 311 313 311 309 310 309 308 308 307 307 307 306 305 305 305 305 306 306 306 307 306 305 305
295 296 297 300 301 300 302 303 303 304 307 305 305 304 303 302 302 303 307 309 310 313 314 314 312 311 311 311 309 308 307 306 307 307 307 307 307 307 308 307 306 306 305
294 298 302 303 300 298 299 300 302 302 303 304 303 303 303 303 304 304 305 307 309 311 312 312 312 311 311 311 310 309 308 307 308 308 308 308 308 308 308 308 307 307 306
293 296 299 300 299 296 297 299 299 301 302 303 303 303 302 302 304 305 306 307 308 309 310 311 312 312 311 310 310 310 310 308 308 308 308 309 309 309 309 309 309 308 307
290 292 295 296 296 296 296 298 297 298 299 302 303 303 303 303 304 304 306 307 308 309 310 310 311 311 311 311 311 310 310 309 309 309 309 309 309 309 309 309 309 308 307
288 289 291 294 294 293 294 296 297 296 297 300 302 302 302 303 304 305 307 308 308 308 308 309 309 309 310 310 310 309 309 310 310 310 310 310 310 309 309 308 308 307 307
286 288 289 292 293 292 293 295 295 295 297 299 301 301 301 302 303 305 305 306 307 307 308 309 309 309 309 310 310 310 310 310 310 311 310 310 309 309 309 308 308 308 308
285 288 289 290 290 291 292 294 293 294 295 298 299 299 299 301 303 304 304 305 305 305 306 307 308 308 309 309 309 310 310 310 311 312 312 311 311 310 309 309 309 309 309
283 285 287 287 288 289 290 291 291 292 294 296 296 297 298 299 301 302 303 303 304 305 305 306 306 307 308 308 309 309 309 309 310 311 312 311 311 311 311 310 310 310 310
280 282 283 284 285 285 286 288 290 292 294 295 296 297 297 298 299 300 302 302 303 304 304 305 306 306 306 307 307 308 308 309 310 310 310 310 310 310 310 310 310 310 310
280 280 280 281 283 284 286 287 289 291 293 295 296 296 297 297 298 299 300 301 302 303 303 304 305 305 305 306 306 306 307 308 308 309 309 309 310 310 309 308 308 308 308
278 279 280 279 281 283 284 286 288 290 291 293 295 295 296 297 298 299 299 299 299 300 302 303 303 304 304 304 304 305 306 307 307 308 308 309 309 309 308 307 307 307 308
276 278 279 279 280 281 283 285 287 288 290 292 293 294 295 297 297 298 299 298 297 298 300 301 302 303 303 302 302 304 306 307 307 308 308 308 309 309 308 307 307 307 308
276 277 278 279 280 282 283 285 287 288 290 291 292 294 295 296 296 297 298 298 298 298 299 300 301 301 301 301 302 303 305 306 307 308 308 308 308 309 308 308 308 308 308
273 276 278 279 281 283 285 286 288 289 289 291 292 294 295 295 296 296 297 298 298 298 299 299 300 300 300 300 301 303 304 306 307 308 309 308 307 307 307 307 307 307 307
272 273 277 279 281 283 285 287 288 288 290 291 292 294 294 294 294 296 297 298 299 298 298 298 298 298 298 300 301 302 304 305 306 307 308 308 308 308 307 307 307 307 306
271 273 276 279 280 282 284 286 287 288 291 293 294 294 295 294 294 295 296 297 297 296 297 297 298 298 299 300 302 303 304 305 307 307 307 307 307 308 307 307 308 307 306
270 272 275 277 279 282 284 285 287 289 291 293 294 293 293 295 295 295 297 297 296 297 298 298 298 299 300 301 302 303 304 304 305 306 307 307 307 307 307 307 307 306 306
Height
5905 5903 5901 5899 5897 5896 5895 5894 5892 5891 5890 5889 5888 5888 5887 5886 5885 5883 5882 5881 5880 5879 5877 5876 5874 5872 5871 5869 5867 5865 5863 5862 5860 5858 5855 5853 5851 5849 5847 5845 5843 5841 5839
5903 5902 5900 5898 5896 5895 5893 5892 5891 5890 5888 5887 5886 5885 5884 5883 5882 5881 5879 5878 5877 5875 5873 5872 5870 5868 5867 5865 5863 5861 5859 5857 5855 5853 5851 5848 5846 5843 5841 5839 5836 5834 5832
5902 5901 5898 5897 5895 5894 5892 5890 5889 5888 5887 5885 5884 5883 5881 5880 5879 5877 5876 5875 5873 5871 5870 5868 5866 5864 5862 5860 5858 5856 5854 5852 5850 5848 5845 5843 5840 5838 5835 5833 5830 5828 5825
5901 5899 5897 5895 5894 5892 5891 5889 5887 5886 5884 5883 5881 5880 5878 5877 5876 5874 5873 5871 5870 5868 5866 5864 5862 5860 5857 5855 5853 5851 5849 5847 5845 5843 5840 5838 5835 5832 5830 5827 5824 5821 5819
5899 5897 5896 5894 5892 5891 5889 5887 5885 5884 5882 5881 5879 5877 5875 5874 5873 5871 5870 5868 5866 5864 5862 5860 5857 5855 5853 5851 5849 5847 5844 5842 5840 5837 5835 5832 5830 5827 5824 5821 5818 5815 5812
5897 5896 5894 5892 5890 5889 5887 5885 5883 5882 5880 5878 5876 5874 5873 5871 5870 5868 5867 5865 5862 5860 5858 5855 5853 5850 5848 5846 5844 5842 5840 5837 5835 5832 5829 5827 5824 5820 5817 5814 5811 5808 5805
5895 5893 5892 5890 5888 5886 5884 5883 5881 5879 5877 5875 5873 5872 5870 5868 5867 5865 5863 5861 5858 5856 5853 5851 5848 5846 5843 5841 5839 5836 5834 5832 5829 5827 5824 5820 5817 5814 5811 5807 5804 5800 5797
5892 5890 5889 5886 5885 5883 5881 5880 5878 5876 5874 5872 5870 5869 5867 5865 5863 5861 5859 5857 5854 5851 5849 5846 5844 5841 5838 5836 5833 5831 5828 5826 5823 5820 5817 5814 5811 5807 5804 5801 5797 5793 5789
5888 5887 5885 5883 5881 5880 5878 5877 5875 5873 5871 5869 5867 5865 5863 5861 5859 5857 5855 5853 5850 5847 5844 5842 5839 5836 5834 5831 5828 5825 5823 5820 5817 5814 5811 5807 5804 5801 5797 5794 5790 5786 5782
5885 5883 5881 5880 5878 5877 5875 5873 5871 5869 5867 5865 5864 5861 5859 5857 5855 5853 5851 5848 5846 5843 5840 5837 5835 5832 5829 5825 5822 5820 5817 5814 5811 5807 5804 5801 5797 5794 5790 5787 5783 5779 5775
5881 5879 5877 5875 5874 5873 5871 5869 5867 5865 5864 5862 5860 5857 5855 5853 5851 5849 5846 5844 5841 5838 5836 5833 5830 5827 5824 5820 5817 5814 5811 5808 5804 5801 5798 5794 5791 5787 5783 5779 5775 5771 5768
5877 5875 5873 5872 5870 5868 5867 5865 5863 5861 5859 5857 5855 5853 5851 5848 5846 5844 5842 5839 5836 5834 5831 5828 5825 5822 5818 5815 5812 5808 5805 5802 5798 5795 5791 5788 5784 5780 5776 5772 5768 5764 5760
5872 5871 5869 5867 5866 5864 5862 5860 5858 5856 5854 5852 5850 5848 5846 5844 5841 5839 5836 5834 5831 5828 5825 5822 5819 5816 5813 5809 5806 5802 5799 5796 5792 5788 5785 5781 5777 5773 5769 5765 5761 5757 5753
5867 5866 5864 5862 5860 5859 5857 5855 5853 5851 5850 5847 5845 5843 5841 5838 5836 5834 5831 5828 5825 5822 5820 5816 5813 5810 5807 5803 5800 5796 5793 5789 5785 5782 5778 5774 5770 5766 5762 5758 5754 5750 5746
5861 5860 5858 5857 5855 5853 5851 5849 5847 5846 5844 5842 5840 5838 5835 5833 5831 5828 5825 5822 5820 5817 5813 5810 5807 5804 5800 5797 5793 5790 5786 5783 5779 5775 5771 5767 5763 5759 5755 5751 5747 5743 5739
5855 5853 5852 5850 5849 5847 5845 5843 5841 5840 5838 5836 5834 5832 5829 5827 5824 5822 5819 5816 5813 5810 5807 5804 5800 5797 5793 5790 5787 5783 5779 5776 5772 5768 5764 5760 5756 5751 5747 5743 5739 5736 5732
5848 5847 5845 5844 5842 5841 5839 5837 5835 5834 5832 5830 5828 5826 5823 5821 5818 5816 5813 5810 5807 5803 5800 5797 5793 5790 5787 5783 5780 5776 5773 5769 5765 5761 5757 5753 5748 5744 5741 5737 5733 5729 5725
5841 5840 5838 5837 5835 5834 5832 5831 5829 5827 5825 5823 5821 5819 5816 5814 5812 5809 5806 5803 5800 5796 5793 5790 5786 5783 5780 5776 5772 5769 5765 5761 5758 5754 5750 5746 5742 5738 5734 5730 5726 5722 5718
5833 5832 5831 5830 5828 5826 5825 5824 5822 5820 5818 5816 5814 5811 5809 5806 5804 5801 5798 5795 5792 5789 5786 5783 5779 5776 5772 5769 5765 5761 5758 5754 5750 5746 5742 5738 5734 5730 5727 5723 5719 5715 5711
5826 5824 5823 5822 5821 5819 5818 5817 5815 5813 5811 5809 5807 5804 5801 5799 5796 5793 5791 5788 5784 5781 5778 5775 5772 5768 5765 5761 5758 5754 5750 5746 5742 5738 5735 5731 5727 5723 5719 5716 5712 5708 5704
5818 5817 5816 5814 5813 5812 5810 5809 5807 5805 5803 5801 5799 5796 5794 5791 5788 5785 5782 5779 5776 5773 5770 5767 5764 5760 5757 5753 5750 5746 5743 5739 5735 5731 5727 5723 5719 5716 5712 5708 5704 5701 5697
5810 5809 5808 5807 5805 5804 5802 5801 5799 5797 5795 5792 5790 5788 5785 5783 5780 5777 5774 5771 5768 5765 5762 5759 5755 5752 5749 5745 5742 5739 5735 5731 5727 5723 5719 5716 5712 5708 5705 5701 5697 5694 5690
5802 5801 5800 5799 5797 5796 5794 5792 5790 5788 5786 5784 5782 5779 5777 5774 5772 5769 5766 5763 5760 5757 5754 5750 5747 5744 5741 5738 5734 5731 5728 5724 5720 5716 5712 5708 5705 5701 5697 5694 5690 5686 5683
5793 5792 5791 5790 5789 5787 5786 5784 5782 5780 5778 5775 5773 5771 5768 5766 5763 5761 5758 5755 5752 5749 5746 5742 5739 5736 5733 5730 5726 5723 5719 5716 5712 5709 5705 5701 5697 5693 5690 5686 5683 5679 5676
5784 5783 5783 5781 5780 5779 5777 5775 5773 5772 5769 5767 5765 5762 5760 5757 5755 5752 5749 5746 5743 5740 5737 5734 5731 5728 5725 5721 5718 5715 5712 5708 5704 5701 5697 5693 5690 5686 5682 5679 5675 5672 5668
5775 5775 5774 5772 5771 5770 5768 5767 5765 5763 5761 5759 5756 5754 5751 5749 5746 5744 5741 5738 5735 5732 5729 5726 5723 5720 5717 5713 5710 5707 5704 5700 5696 5693 5689 5685 5682 5678 5675 5671 5668 5664 5661